{"data":{"norad_id":62068,"epoch":"2026-05-25T00:31:23.524320Z","epoch_age_seconds":69570,"freshness":"FRESH","line1":"1 62068U 24217M   26145.02180005  .00153397  00000+0  12475-2 0  9990","line2":"2 62068  53.1574  54.8704 0001006  73.1331 286.9797 15.69714934 87161","mean_motion":15.69714934,"eccentricity":0.0001006,"inclination_deg":53.1574,"raan_deg":54.8704,"arg_perigee_deg":73.1331,"mean_anomaly_deg":286.9797,"bstar":0.0012475,"rev_number":8716,"period_min":91.736401865691,"perigee_km":359.0348035645,"apogee_km":360.3904589103,"semimajor_km":6737.8496312374,"source":"CELESTRAK","updated_at":"2026-05-25T13:38:19.552107Z"}}